CAPE
292 214 39 128 164 166 53 25 14 11 2 2 15 1 46 70 27 39 42 40 5 2
51 41 7 1 0 10 7 0 2 7 0 0 0 30 28 20 85 61 83 6 14 20
8 0 0 0 0 1 7 7 0 0 1 0 15 16 9 43 45 13 10 15 11 4
1 0 0 0 0 0 0 6 1 2 2 13 8 6 3 5 7 7 6 4 1 1
1 0 0 0 0 0 0 0 1 7 15 30 7 3 1 2 0 0 3 3 1 5
1 0 1 1 1 0 0 0 0 1 15 16 9 13 9 8 7 9 7 0 4 1
1 0 2 0 0 0 0 0 0 0 0 0 3 11 4 2 1 1 1 0 0 0
0 0 0 0 0 0 0 0 0 0 0 0 1 0 0 1 1 1 1 1 0 1
0 0 0 0 0 0 3 3 2 1 1 5 1 1 1 0 1 1 1 0 0 0
0 0 1 2 5 3 2 2 2 2 1 1 1 8 6 1 0 0 0 0 0 0
0 1 2 2 1 1 1 2 1 1 1 1 5 9 4 0 0 0 0 0 0 0
1 1 1 1 1 1 1 1 1 0 0 1 2 2 0 0 0 0 0 0 0 0
1 2 1 1 1 1 0 0 0 1 0 2 0 0 0 0 0 0 0 0 0 1
1 1 0 1 0 0 0 0 0 0 0 0 0 0 0 0 0 0 0 0 0 2
CIN
-243 -218 -332 -171 -211 -182 -192 -163 -149 -117 -10 -32 -29 -22 -14 -15 -24 -16 -11 -3 -30 -21
-286 -204 -165 -60 -0 -207 -224 -0 -140 -88 -0 -0 -4 -20 -36 -26 -4 -4 -0 -14 -5 -24
-330 -0 -0 -0 -0 -70 -187 -156 -0 -0 -47 -50 -24 -36 -40 -8 -2 -4 -3 -0 -13 -1
-14 -0 -0 -0 -0 -0 -115 -129 -36 -57 -59 -24 -42 -47 -45 -12 -0 -2 -0 -0 -2 -0
-0 -0 -0 -0 -0 -0 -0 -0 -38 -35 -23 -13 -52 -53 -55 -4 -1 -3 -1 -0 -2 -41
-0 -0 -0 -0 -0 -0 -0 -0 -0 -59 -35 -25 -32 -32 -34 -31 -31 -14 -55 -0 -41 -50
-0 -0 -0 -0 -0 -0 -0 -0 -0 -0 -0 -0 -27 -29 -36 -16 -0 -0 -0 -0 -0 -0
-0 -0 -0 -0 -0 -0 -0 -0 -0 -0 -0 -0 -18 -11 -0 -0 -0 -0 -0 -0 -0 -0
-0 -0 -0 -0 -0 -0 -0 -0 -0 -0 -7 -4 -0 -0 -0 -0 -0 -0 -0 -0 -0 -0
-0 -0 -0 -0 -0 -0 -0 -0 -0 -0 -0 -0 -0 -0 -0 -0 -0 -0 -0 -0 -0 -0
-0 -0 -0 -0 -0 -0 -0 -0 -0 -0 -0 -0 -0 -0 -0 -0 -0 -0 -0 -0 -0 -0
-0 -0 -0 -0 -0 -0 -0 -0 -0 -0 -0 -0 -0 -0 -0 -0 -0 -0 -0 -0 -0 -0
-0 -0 -0 -0 -0 -0 -0 -0 -0 -0 -0 -0 -0 -0 -0 -0 -0 -0 -0 -0 -0 -0
-0 -0 -0 -0 -0 -0 -0 -0 -0 -0 -0 -0 -0 -0 -0 -0 -0 -0 -0 -0 -0 -0
Wind_Speed
8 5 6 4 8 8 7 7 9 8 8 8 8 6 5 3 3 4 3 6 4 3
6 9 15 7 5 4 6 6 9 9 9 7 6 7 6 4 5 4 4 4 4 3
6 10 8 10 8 5 7 9 10 9 6 7 7 7 6 5 4 5 4 4 5 3
9 9 4 8 8 8 8 9 9 8 7 8 8 7 6 6 5 6 5 4 4 3
9 9 9 8 7 10 9 6 5 7 8 8 8 8 7 7 5 5 5 5 3 2
9 12 5 9 9 9 9 8 7 7 6 6 6 6 6 8 7 6 5 4 3 4
8 12 10 9 8 10 9 7 6 6 5 6 5 4 6 7 8 8 7 6 5 5
9 10 8 10 8 7 7 7 7 7 6 5 5 4 8 9 9 10 8 7 7 7
8 10 9 7 8 9 8 7 7 7 7 7 4 15 16 12 10 10 11 11 12 12
9 8 8 9 9 8 7 6 6 7 7 7 9 20 20 21 11 11 10 11 10 10
10 9 8 8 7 7 7 8 9 10 10 10 11 23 24 23 13 12 12 12 12 12
10 9 9 8 8 8 9 9 10 11 12 13 11 25 24 19 13 13 15 13 14 14
10 11 9 9 9 8 10 10 11 12 11 16 14 21 22 16 11 15 12 13 15 18
11 11 10 10 10 11 12 13 12 12 9 12 14 16 21 18 12 11 11 11 11 11
Wind_Direction
160 130 95 113 151 162 167 164 159 162 157 157 155 139 166 160 131 156 152 158 148 152
136 141 118 136 58 176 148 148 150 160 155 145 145 156 134 143 149 149 150 143 151 139
123 106 127 119 110 200 146 147 148 150 136 148 150 146 136 145 150 136 128 131 140 132
121 101 114 120 149 169 142 147 152 145 150 155 148 145 129 138 142 133 128 123 124 145
116 108 140 124 160 148 132 130 140 147 163 153 140 144 143 141 139 139 147 134 154 166
131 111 139 130 141 122 121 119 106 102 109 113 128 148 147 150 158 159 150 155 168 139
136 118 143 133 115 124 117 118 113 118 114 106 116 124 118 113 102 93 82 83 84 85
122 116 117 121 123 120 116 126 138 133 127 117 117 114 111 110 107 99 87 73 80 82
115 120 123 123 123 121 118 131 136 140 131 138 123 129 124 114 102 97 93 86 70 66
125 127 132 128 129 116 121 121 117 113 111 116 121 126 119 109 100 100 97 93 89 79
138 137 133 121 116 115 112 113 106 96 100 97 115 118 112 105 99 93 88 89 90 92
142 137 124 122 119 114 110 102 94 95 99 105 108 115 113 106 100 94 94 94 94 98
140 129 123 121 116 109 105 101 96 93 97 110 110 109 108 106 108 106 101 97 96 99
129 122 125 119 118 115 108 100 96 97 95 103 110 112 110 110 111 110 108 105 102 101